Flag for Tunisia Weather past 2 weeks in Sfax, Tunisia

Now
88 °F

Passing clouds.


Feels Like: 85 °F
Forecast: 66 / 88 °F
Wind: 9 mph from Southeast

Location: Sfax El-Maou

Current Time: Jul 6, 2015 at 3:24:33 PM

Latest Report: Jul 6, 2015 at 3:00 PM


Visibility: N/A

Pressure: 30.09 "Hg

Humidity: 29%

Dew point: 52 °F

Location of SfaxLocation

Historic Weather in Sfax — Graph

°F

Sfax temperature yesterday

Maximum temperature yesterday: 86 °F (at 11:00 AM)
Minimum temperature yesterday: 70 °F (at 4:00 AM)
Average temperature yesterday: 79 °F

Past Weeks' High & Low Weather Summary

 TemperatureHumidityPressure
High91 °F (Jun 28, 12:00 PM)88% (Jun 23, 4:00 AM)30.18 "Hg (Jun 23, 4:00 AM)
Low66 °F (Jun 27, 5:00 AM)25% (Jun 27, 10:00 AM)29.86 "Hg (Jun 24, 5:00 PM)
Average78 °F59%30.06 "Hg
* Reported Jun 21 2:00 PM — Jul 6 2:00 PM, Sfax, Weather by CustomWeather, © 2015

Note: Actual official high and low records may vary slightly from our data, if they occured in-between our weather recording intervals... More about our weather records

Advertising

Sfax weather history for previous 24 hours

 ConditionsComfort  
Time TempWeatherWind HumidityBarometerVisibility
2:00 PM
Mon, Jul 6
86 °FPassing clouds.9 mph33%30.09 "HgN/A
1:00 PM86 °FSunny.12 mph43%30.12 "Hg10 mi
12:00 PM86 °FPassing clouds.9 mph33%30.12 "HgN/A
11:00 AM84 °FPassing clouds.7 mph40%30.12 "HgN/A
10:00 AM84 °FPassing clouds.9 mph45%30.12 "HgN/A
9:00 AM82 °FSunny.5 mph45%30.12 "Hg10 mi
8:00 AM81 °FPassing clouds.3 mph58%30.12 "HgN/A
7:00 AM73 °FSunny.3 mph65%30.12 "Hg10 mi
5:00 AM68 °FClear.5 mph78%30.09 "Hg10 mi
4:00 AM70 °FClear.5 mph73%30.09 "Hg10 mi
3:00 AM70 °FClear.3 mph69%30.09 "Hg10 mi
2:00 AM72 °FClear.5 mph69%30.09 "Hg10 mi
1:00 AM73 °FClear.3 mph65%30.09 "Hg10 mi
12:00 AM73 °FClear.No wind69%30.09 "Hg10 mi
11:00 PM
Sun, Jul 5
73 °FClear.2 mph69%30.09 "Hg10 mi
10:00 PM77 °FClear.3 mph61%30.09 "Hg10 mi
8:00 PM79 °FClear.8 mph54%30.07 "Hg10 mi
7:00 PM79 °FSunny.9 mph58%30.07 "Hg10 mi
6:00 PM81 °FPassing clouds.12 mph58%30.07 "HgN/A
5:00 PM82 °FPassing clouds.12 mph45%30.07 "HgN/A
4:00 PM84 °FPassing clouds.12 mph45%30.07 "HgN/A
3:00 PM84 °FSunny.13 mph40%30.09 "Hg10 mi
Weather by CustomWeather, © 2015

See weather overviewHow to use our weather pages